Weather History for KBFF - January, 2010

Change the Weather History Date:

Sunday, January 31, 2010

  Actual Average Record
Temperature  
Mean Temperature 25 °F 28 °F  
Max Temperature 30 °F 42 °F 66 °F (1989)
Min Temperature 20 °F 15 °F -22 °F (1979)
Degree Days  
Heating Degree Days 40 37  
Month to date heating degree days 1140 1170  
Since 1 July heating degree days 4210 3942  
Cooling Degree Days 0 0  
Month to date cooling degree days 0  
Year to date cooling degree days 0  
Moisture  
Dew Point 19 °F    
Average Humidity 77    
Maximum Humidity 84    
Minimum Humidity 69    
Precipitation  
Precipitation 0.00 in 0.02 in 0.60 in (1981)
Month to date precipitation 0.03 0.41  
Year to date precipitation 0.03 0.41  
Snow  
Snow 0.00 in 0.20 in 7.00 in (1981)
Month to date snowfall 1.3 5.4  
Since 1 July snowfall 53.3 21.4  
Snow Depth 0.00 in    
Sea Level Pressure  
Sea Level Pressure 30.00 in    
Wind  
Wind Speed 10 mph (ESE)    
Max Wind Speed 18 mph    
Max Gust Speed -    
Visibility 8 miles    
Events      
T = Trace of Precipitation, MM = Missing Value Source: NWS Daily Summary

Daily Weather History Graph

Daily Weather History Graph

Search for Another Location

Airport or City:

Trip Planner

Search our weather history database for the weather conditions in past years. The results will help you decide how hot, cold, wet, or windy it might be!

Date:

Astronomy

Jan. 31, 2010 Rise Set
Actual Time 7:07 AM MST 5:08 PM MST
Civil Twilight 6:38 AM MST 5:37 PM MST
Nautical Twilight 6:04 AM MST 6:11 PM MST
Astronomical Twilight 5:32 AM MST 6:44 PM MST
Moon 7:26 PM MST (1/31) 7:46 AM MST (1/31)
Length of Visible Light 10h 59m
Length of Day
10h 00m
Waning Gibbous, 96% of the Moon is Illuminated
Jan 31
Waning Gibbous
Feb 5
Last Quarter
Feb 13
New
Feb 21
First Quarter
Feb 28
Full

Hourly Weather History & Observations

Time (MST) Temp. Windchill Dew Point Humidity Pressure Visibility Wind Dir Wind Speed Gust Speed Precip Events Conditions
12:53 AM 24.1 °F 15.2 °F 18.0 °F 77% 30.08 in 10.0 mi ESE 8.1 mph - N/A   Clear
1:53 AM 23.0 °F 13.9 °F 18.0 °F 81% 30.06 in 10.0 mi East 8.1 mph - N/A   Clear
2:53 AM 21.9 °F 14.5 °F 17.1 °F 82% 30.05 in 10.0 mi East 5.8 mph - N/A   Clear
3:53 AM 21.9 °F 12.5 °F 17.1 °F 82% 30.02 in 10.0 mi East 8.1 mph - N/A   Clear
4:53 AM 21.9 °F 11.7 °F 17.1 °F 82% 30.03 in 10.0 mi ESE 9.2 mph - N/A   Clear
5:53 AM 21.0 °F 9.9 °F 16.0 °F 81% 30.07 in 10.0 mi East 10.4 mph - N/A   Clear
6:53 AM 21.0 °F 8.6 °F 16.0 °F 81% 30.06 in 10.0 mi ESE 12.7 mph - N/A   Clear
7:53 AM 21.0 °F 11.4 °F 16.0 °F 81% 30.09 in 10.0 mi ESE 8.1 mph - N/A   Clear
8:53 AM 23.0 °F 10.6 °F 18.0 °F 81% 30.08 in 9.0 mi ESE 13.8 mph - N/A   Clear
9:31 AM 24.8 °F 14.0 °F 19.4 °F 80% 29.98 in 9.0 mi SE 11.5 mph - N/A   Scattered Clouds
9:42 AM 24.8 °F 14.0 °F 19.4 °F 80% 29.98 in 8.0 mi ESE 11.5 mph - N/A   Mostly Cloudy
9:53 AM 25.0 °F 14.2 °F 19.0 °F 78% 30.09 in 7.0 mi ESE 11.5 mph - N/A   Mostly Cloudy
10:53 AM 26.1 °F 16.8 °F 19.9 °F 78% 30.08 in 8.0 mi ESE 9.2 mph - N/A   Mostly Cloudy
11:12 AM 26.6 °F 17.5 °F 19.4 °F 74% 29.97 in 8.0 mi ESE 9.2 mph - N/A   Scattered Clouds
11:53 AM 27.0 °F 18.0 °F 19.9 °F 75% 30.06 in 9.0 mi ESE 9.2 mph - N/A   Mostly Cloudy
12:53 PM 28.0 °F 20.0 °F 19.9 °F 72% 30.03 in 8.0 mi SE 8.1 mph - N/A   Overcast
1:53 PM 28.9 °F 17.7 °F 21.0 °F 72% 29.99 in 8.0 mi ESE 15.0 mph - N/A   Overcast
2:41 PM 28.4 °F 18.5 °F 21.2 °F 74% 29.89 in 8.0 mi ESE 11.5 mph - N/A   Scattered Clouds
2:53 PM 30.0 °F 20.5 °F 21.0 °F 69% 29.99 in 8.0 mi SE 11.5 mph - N/A   Scattered Clouds
3:53 PM 28.9 °F 17.3 °F 21.0 °F 72% 29.99 in 8.0 mi SE 16.1 mph - N/A   Overcast
4:53 PM 28.0 °F 17.5 °F 21.0 °F 75% 29.99 in 7.0 mi SE 12.7 mph - N/A   Mostly Cloudy
5:33 PM 26.6 °F 16.2 °F 21.2 °F 80% 29.89 in 7.0 mi SE 11.5 mph - N/A   Mostly Cloudy
5:53 PM 27.0 °F 16.7 °F 21.0 °F 78% 30.01 in 7.0 mi SE 11.5 mph - N/A   Overcast
6:53 PM 27.0 °F - 21.0 °F 78% 30.01 in 7.0 mi North - - N/A   Overcast
7:53 PM 28.0 °F 18.6 °F 21.0 °F 75% 29.99 in 7.0 mi SE 10.4 mph - N/A   Overcast
8:53 PM 28.0 °F 18.6 °F 21.0 °F 75% 29.97 in 8.0 mi SSE 10.4 mph - N/A   Overcast
9:38 PM 26.6 °F 18.2 °F 21.2 °F 80% 29.86 in 7.0 mi SSE 8.1 mph - N/A   Overcast
9:53 PM 26.1 °F 16.8 °F 21.0 °F 81% 29.96 in 7.0 mi SSE 9.2 mph - N/A   Overcast
10:26 PM 24.8 °F 14.6 °F 21.2 °F 86% 29.85 in 7.0 mi SSE 10.4 mph - N/A   Scattered Clouds
10:53 PM 25.0 °F 14.8 °F 19.9 °F 81% 29.94 in 7.0 mi SSE 10.4 mph - N/A   Clear
11:53 PM 21.0 °F 12.4 °F 18.0 °F 88% 29.93 in 5.0 mi ESE 6.9 mph - N/A   Clear